Regional Weather Roundup
Issued by NWS Kansas City/Pleasant Hill, MO

Home | Current Version | Previous Version | Graphics & Text | Print | Product List | Glossary Off
Versions: 1 2 3 4 5 6 7 8 9 10 11 12 13 14 15 16 17 18 19 20 21 22 23 24 25 26 27 28 29 30 31 32 33 34 35 36 37 38 39 40 41 42 43 44 45 46 47 48 49 50

000
ASUS43 KEAX 112004
RWREAX

WEATHER ROUNDUP FOR EASTERN KANSAS AND NORTHWEST MISSOURI
NATIONAL WEATHER SERVICE KANSAS CITY/PLEASANT HILL MO
300 PM CDT FRI JUL 11 2014

KSZ040-057-103>105-MOZ028-029-037-043-112100-
...KANSAS CITY METROPOLITAN AREA...

CITY           SKY/WX    TMP DP  RH WIND       PRES   REMARKS
K.C. INTL      PTSUNNY   84  72  67 S14       30.03S
K.C. DOWNTOWN  PTSUNNY   87  71  58 S10       30.02F HX  93
LEES SUMMIT    PTSUNNY   86  73  65 S12       30.05F HX  93
OLATHE - IXD   PTSUNNY   88  72  58 S17       30.05F HX  94
OLATHE - OJC   PTSUNNY   85  73  67 S12       30.04F HX  91
LAWRENCE       PTSUNNY   90  72  55 S12       30.03S HX  97

$$

MOZ001>008-011>017-020>025-030>033-038>040-044>046-053-054-112100-
...NORTHERN AND CENTRAL MISSOURI...

CITY           SKY/WX    TMP DP  RH WIND       PRES   REMARKS
ST. JOSEPH     PTSUNNY   86  74  67 S16       30.00F HX  94
MOSBY            N/A     86  72  62 S6        30.02F HX  92
WHITEMAN AFB   PTSUNNY   87  68  53 SW12      30.05F HX  90
CLINTON        PTSUNNY   88  75  66 SW9       30.07F HX  97
SEDALIA        PTSUNNY   89  74  60 SW15      30.07F HX  98
WARSAW         NOT AVBL
MARSHALL         N/A     88  75  66 S8        30.06F HX  97
CHILLICOTHE      N/A     85  72  65 S12       30.03F HX  91
KIRKSVILLE     CLOUDY    83  71  67 S16       30.05F

$$

MOZ041-047>049-056>058-063>065-088>090-097-112100-
...EASTERN AND SOUTHERN MISSOURI...

CITY           SKY/WX    TMP DP  RH WIND       PRES   REMARKS
ST. LOUIS INTL PTSUNNY   88  67  49 S14       30.12F HX  91
SPIRIT OF STL  PTSUNNY   88  68  51 S6        30.09F HX  91
COLUMBIA       MOSUNNY   87  73  62 S14       30.08F HX  94
JEFFERSON CITY MOSUNNY   88  72  58 S12       30.06F HX  94
HANNIBAL       PTSUNNY   84  66  54 SE9       30.08F
ROLLA          MOSUNNY   87  69  54 SW10      30.11S HX  91
LEBANON        MOSUNNY   90  70  51 SW6       30.13S HX  95
OSAGE BEACH    MOSUNNY   90  72  55 SW10      30.09F HX  96
SPRINGFIELD    MOSUNNY   89  69  51 SW13      30.12S HX  93
BRANSON        MOSUNNY   91  72  52 S9        30.16S HX  98
NEVADA         PTSUNNY   90  73  58 SW9       30.09S HX  98
JOPLIN         SUNNY     91  70  49 S14G20    30.10S HX  96
WEST PLAINS    PTSUNNY   83  71  67 SE8       30.18S
MALDEN         SUNNY     90  66  45 S7        30.14F HX  92

$$

IAZ060-094-KSZ022-034>040-054-083-096-NEZ052-066-093-112100-
...KANSAS...SOUTHEAST NEBRASKA AND IOWA...

CITY           SKY/WX    TMP DP  RH WIND       PRES   REMARKS
TOPEKA         MOSUNNY   88  73  61 S10       30.01F HX  95
MANHATTAN      MOSUNNY   96  68  39 S13       29.97F HX 101
EMPORIA        PTSUNNY   91  68  46 SW14      30.03F HX  95
CHANUTE        SUNNY     91  71  51 S15G22    30.06S HX  97
WICHITA        MOSUNNY   92  67  43 S16       30.02F HX  95
OMAHA          CLOUDY    79  70  74 SE10      29.97S
LINCOLN        CLOUDY    85  72  65 S9        29.97S HX  91
FALLS CITY     CLOUDY    87  73  62 S10       29.97F HX  94
LAMONI         CLOUDY    80  71  74 S8        30.02S
DES MOINES     CLOUDY    75  69  81 S9G20     29.98F

$$




USA.gov is the U.S. government's official web portal to all federal, state and local government web resources and services.